| time (UTC) | temp F | wind direction | speed MPH | gust MPH | rain 1hr in | rain 24hr in | rain mn in | humidity % | barometer mb |
| 20260504184037 | 78 | 214 | 6.0 | 16.0 | 0.00 | 0.00 | 0.00 | 60 | 1014.0 |
| 20260504183537 | 78 | 198 | 5.0 | 16.0 | 0.00 | 0.00 | 0.00 | 62 | 1014.1 |
| 20260504183057 | 78 | 158 | 7.0 | 16.0 | 0.00 | 0.00 | 0.00 | 62 | 1014.1 |
| 20260504182536 | 78 | 157 | 7.0 | 16.0 | 0.00 | 0.00 | 0.00 | 61 | 1014.1 |
| 20260504182037 | 78 | 178 | 4.0 | 14.0 | 0.00 | 0.00 | 0.00 | 62 | 1014.1 |
| 20260504181548 | 77 | 136 | 6.0 | 14.0 | 0.00 | 0.00 | 0.00 | 62 | 1014.2 |
| 20260504181037 | 77 | 198 | 7.0 | 13.0 | 0.00 | 0.00 | 0.00 | 63 | 1014.3 |
| 20260504180538 | 77 | 181 | 8.0 | 13.0 | 0.00 | 0.00 | 0.00 | 61 | 1014.4 |
| 20260504180118 | 78 | 145 | 6.0 | 12.0 | 0.00 | 0.00 | 0.00 | 60 | 1014.5 |
| 20260504175538 | 78 | 250 | 3.0 | 11.0 | 0.00 | 0.00 | 0.00 | 61 | 1014.7 |
| 20260504175037 | 78 | 204 | 3.0 | 10.0 | 0.00 | 0.00 | 0.00 | 63 | 1014.9 |
| 20260504174552 | 77 | 143 | 3.0 | 9.0 | 0.00 | 0.00 | 0.00 | 62 | 1014.8 |
| 20260504174037 | 76 | 207 | 3.0 | 18.0 | 0.00 | 0.00 | 0.00 | 61 | 1014.8 |
| 20260504173537 | 77 | 229 | 4.0 | 19.0 | 0.00 | 0.00 | 0.00 | 64 | 1014.7 |
| 20260504173051 | 76 | 152 | 5.0 | 20.0 | 0.00 | 0.00 | 0.00 | 64 | 1014.9 |
| 20260504172536 | 76 | 170 | 10.0 | 20.0 | 0.00 | 0.00 | 0.00 | 62 | 1015.0 |
| 20260504172036 | 76 | 212 | 7.0 | 19.0 | 0.00 | 0.00 | 0.00 | 61 | 1015.1 |
| 20260504171551 | 76 | 159 | 9.0 | 16.0 | 0.00 | 0.00 | 0.00 | 63 | 1015.1 |
| 20260504171039 | 77 | 134 | 7.0 | 16.0 | 0.00 | 0.00 | 0.00 | 61 | 1015.3 |
| 20260504170537 | 76 | 164 | 3.0 | 15.0 | 0.00 | 0.00 | 0.00 | 65 | 1015.4 |
| 20260504151037 | 71 | 146 | 7.0 | 20.0 | 0.00 | 0.00 | 0.00 | 66 | 1016.3 |
| 20260504150539 | 71 | 197 | 8.0 | 20.0 | 0.00 | 0.00 | 0.00 | 67 | 1016.2 |
| 20260504141037 | 66 | 178 | 3.0 | 9.0 | 0.00 | 0.00 | 0.00 | 75 | 1016.4 |
| 20260504140538 | 66 | 183 | 3.0 | 9.0 | 0.00 | 0.00 | 0.00 | 76 | 1016.4 |
| 20260504130538 | 59 | 171 | 3.0 | 6.0 | 0.00 | 0.00 | 0.00 | 86 | 1016.2 |
| 20260504110536 | 54 | 0 | 0.0 | 0.0 | 0.00 | 0.01 | 0.00 | 89 | 1015.7 |
| 20260504100536 | 55 | 0 | 0.0 | 0.0 | 0.00 | 0.01 | 0.00 | 87 | 1015.9 |
| 20260504100107 | 55 | 0 | 0.0 | 0.0 | 0.00 | 0.01 | 0.00 | 87 | 1016.0 |
| 20260504081549 | 58 | 159 | 0.0 | 2.0 | 0.00 | 0.01 | 0.00 | 82 | 1016.4 |
| 20260504081037 | 58 | 159 | 0.0 | 5.0 | 0.00 | 0.01 | 0.00 | 82 | 1016.5 |
| 20260504080537 | 58 | 159 | 0.0 | 5.0 | 0.00 | 0.01 | 0.00 | 82 | 1016.6 |
| 20260504050537 | 62 | 201 | 2.0 | 6.0 | 0.00 | 0.01 | 0.00 | 76 | 1018.3 |
| 20260504045537 | 62 | 197 | 2.0 | 8.0 | 0.00 | 0.01 | 0.01 | 77 | 1018.3 |
| 20260504045037 | 62 | 185 | 2.0 | 8.0 | 0.00 | 0.01 | 0.01 | 77 | 1018.4 |
| 20260504044550 | 62 | 167 | 3.0 | 8.0 | 0.00 | 0.01 | 0.01 | 77 | 1018.4 |
| 20260504044035 | 61 | 205 | 1.0 | 4.0 | 0.00 | 0.01 | 0.01 | 79 | 1018.4 |
| 20260504043537 | 61 | 0 | 0.0 | 4.0 | 0.00 | 0.01 | 0.01 | 79 | 1018.4 |
| 20260504043101 | 61 | 163 | 0.0 | 5.0 | 0.00 | 0.01 | 0.01 | 80 | 1018.4 |
| 20260504042535 | 61 | 146 | 0.0 | 5.0 | 0.00 | 0.01 | 0.01 | 80 | 1018.5 |
| 20260504042035 | 61 | 171 | 1.0 | 4.0 | 0.00 | 0.01 | 0.01 | 80 | 1018.5 |
| 20260504041554 | 61 | 0 | 0.0 | 2.0 | 0.00 | 0.01 | 0.01 | 81 | 1018.4 |
| 20260504041038 | 61 | 0 | 0.0 | 4.0 | 0.00 | 0.01 | 0.01 | 81 | 1018.4 |
| 20260504040535 | 61 | 0 | 0.0 | 5.0 | 0.00 | 0.01 | 0.01 | 82 | 1018.4 |
| 20260504035538 | 60 | 190 | 0.0 | 2.0 | 0.00 | 0.01 | 0.01 | 84 | 1018.3 |
| 20260504035040 | 60 | 0 | 0.0 | 3.0 | 0.00 | 0.01 | 0.01 | 85 | 1018.3 |
| 20260504034558 | 60 | 190 | 1.0 | 3.0 | 0.00 | 0.01 | 0.01 | 86 | 1018.3 |
| 20260504034037 | 60 | 0 | 0.0 | 2.0 | 0.00 | 0.01 | 0.01 | 86 | 1018.2 |
| 20260504033538 | 60 | 0 | 0.0 | 2.0 | 0.00 | 0.01 | 0.01 | 85 | 1018.3 |
| 20260504033054 | 60 | 0 | 0.0 | 2.0 | 0.00 | 0.01 | 0.01 | 85 | 1018.3 |
| 20260504032536 | 60 | 0 | 0.0 | 0.0 | 0.00 | 0.01 | 0.01 | 85 | 1018.2 |
| 20260504032038 | 60 | 0 | 0.0 | 0.0 | 0.00 | 0.01 | 0.01 | 84 | 1018.1 |
| 20260504031555 | 61 | 0 | 0.0 | 0.0 | 0.00 | 0.01 | 0.01 | 83 | 1018.1 |
| 20260504031035 | 61 | 0 | 0.0 | 0.0 | 0.00 | 0.01 | 0.01 | 82 | 1018.1 |
| 20260504030538 | 61 | 0 | 0.0 | 0.0 | 0.00 | 0.01 | 0.01 | 81 | 1018.1 |
| 20260504030053 | 61 | 0 | 0.0 | 0.0 | 0.00 | 0.01 | 0.01 | 80 | 1018.1 |
| 20260504025536 | 61 | 0 | 0.0 | 0.0 | 0.00 | 0.01 | 0.01 | 81 | 1018.2 |
| 20260504025038 | 62 | 0 | 0.0 | 0.0 | 0.00 | 0.01 | 0.01 | 80 | 1018.1 |
| 20260504024550 | 62 | 0 | 0.0 | 0.0 | 0.00 | 0.01 | 0.01 | 80 | 1018.2 |
| 20260504024038 | 62 | 0 | 0.0 | 0.0 | 0.00 | 0.01 | 0.01 | 79 | 1018.1 |
| 20260504023538 | 62 | 0 | 0.0 | 0.0 | 0.00 | 0.01 | 0.01 | 78 | 1018.0 |
| 20260504023052 | 63 | 0 | 0.0 | 0.0 | 0.00 | 0.01 | 0.01 | 77 | 1018.0 |
| 20260504022535 | 63 | 0 | 0.0 | 0.0 | 0.00 | 0.01 | 0.01 | 78 | 1017.9 |
| 20260504022035 | 63 | 0 | 0.0 | 0.0 | 0.00 | 0.01 | 0.01 | 79 | 1017.8 |
| 20260504021552 | 64 | 0 | 0.0 | 0.0 | 0.00 | 0.01 | 0.01 | 78 | 1017.9 |
| 20260504021035 | 64 | 0 | 0.0 | 0.0 | 0.00 | 0.01 | 0.01 | 77 | 1017.9 |
| 20260504020537 | 65 | 0 | 0.0 | 0.0 | 0.00 | 0.01 | 0.01 | 79 | 1017.9 |
| 20260504020059 | 65 | 0 | 0.0 | 0.0 | 0.00 | 0.01 | 0.01 | 76 | 1017.9 |
| 20260504015536 | 65 | 0 | 0.0 | 0.0 | 0.00 | 0.01 | 0.01 | 74 | 1017.8 |
| 20260504015036 | 66 | 0 | 0.0 | 0.0 | 0.00 | 0.01 | 0.01 | 71 | 1017.9 |
| 20260504014553 | 67 | 0 | 0.0 | 0.0 | 0.00 | 0.01 | 0.01 | 71 | 1017.9 |
| 20260504014036 | 67 | 0 | 0.0 | 0.0 | 0.00 | 0.01 | 0.01 | 69 | 1017.8 |
| 20260504013536 | 68 | 0 | 0.0 | 0.0 | 0.00 | 0.01 | 0.01 | 69 | 1017.7 |
| 20260504013049 | 69 | 0 | 0.0 | 0.0 | 0.00 | 0.01 | 0.01 | 69 | 1017.6 |
| 20260504012538 | 69 | 0 | 0.0 | 0.0 | 0.00 | 0.01 | 0.01 | 67 | 1017.7 |
| 20260504012039 | 70 | 0 | 0.0 | 0.0 | 0.00 | 0.01 | 0.01 | 65 | 1017.7 |
| 20260504011550 | 70 | 0 | 0.0 | 0.0 | 0.00 | 0.01 | 0.01 | 64 | 1017.8 |
| 20260504011035 | 71 | 0 | 0.0 | 0.0 | 0.00 | 0.01 | 0.01 | 64 | 1017.6 |
| 20260504010537 | 71 | 0 | 0.0 | 0.0 | 0.00 | 0.01 | 0.01 | 63 | 1017.6 |
| 20260504010046 | 71 | 0 | 0.0 | 1.0 | 0.00 | 0.01 | 0.01 | 62 | 1017.6 |
| 20260504005538 | 72 | 0 | 0.0 | 3.0 | 0.00 | 0.01 | 0.01 | 63 | 1017.5 |
| 20260504005036 | 73 | 0 | 0.0 | 3.0 | 0.00 | 0.01 | 0.01 | 59 | 1017.6 |
| 20260504004549 | 73 | 0 | 0.0 | 3.0 | 0.00 | 0.01 | 0.01 | 57 | 1017.7 |
| 20260504004035 | 73 | 0 | 0.0 | 3.0 | 0.00 | 0.01 | 0.01 | 56 | 1017.7 |
| 20260504003536 | 74 | 157 | 1.0 | 3.0 | 0.00 | 0.01 | 0.01 | 56 | 1017.7 |
| 20260504003048 | 74 | 157 | 0.0 | 5.0 | 0.00 | 0.01 | 0.01 | 56 | 1017.6 |
| 20260504002535 | 75 | 0 | 1.0 | 5.0 | 0.00 | 0.01 | 0.01 | 53 | 1017.6 |
| 20260504002035 | 75 | 0 | 1.0 | 5.0 | 0.00 | 0.01 | 0.01 | 52 | 1017.7 |
| 20260504001548 | 75 | 98 | 2.0 | 5.0 | 0.00 | 0.01 | 0.01 | 52 | 1017.7 |
| 20260504001037 | 76 | 175 | 2.0 | 5.0 | 0.00 | 0.01 | 0.01 | 51 | 1017.8 |
| 20260504000538 | 76 | 165 | 2.0 | 5.0 | 0.00 | 0.01 | 0.01 | 50 | 1017.9 |
| 20260504000052 | 76 | 171 | 2.0 | 7.0 | 0.00 | 0.01 | 0.01 | 51 | 1017.8 |
| 20260503235539 | 76 | 171 | 2.0 | 7.0 | 0.00 | 0.01 | 0.01 | 50 | 1017.9 |
| 20260503235038 | 76 | 155 | 3.0 | 7.0 | 0.00 | 0.01 | 0.01 | 50 | 1017.9 |
| 20260503234550 | 77 | 157 | 3.0 | 8.0 | 0.00 | 0.01 | 0.01 | 49 | 1017.9 |
| 20260503234038 | 77 | 168 | 2.0 | 9.0 | 0.00 | 0.01 | 0.01 | 49 | 1018.0 |
| 20260503233538 | 77 | 211 | 3.0 | 9.0 | 0.00 | 0.01 | 0.01 | 48 | 1018.0 |
| 20260503233048 | 78 | 179 | 2.0 | 9.0 | 0.00 | 0.01 | 0.01 | 50 | 1018.1 |
| 20260503232537 | 78 | 155 | 4.0 | 9.0 | 0.00 | 0.01 | 0.01 | 49 | 1018.0 |
| 20260503232036 | 78 | 198 | 3.0 | 8.0 | 0.00 | 0.01 | 0.01 | 50 | 1018.0 |
| 20260503231547 | 78 | 171 | 2.0 | 8.0 | 0.00 | 0.01 | 0.01 | 51 | 1017.9 |
| 20260503231036 | 78 | 148 | 3.0 | 9.0 | 0.00 | 0.01 | 0.01 | 51 | 1018.0 |
| 20260503230536 | 78 | 174 | 4.0 | 9.0 | 0.00 | 0.01 | 0.01 | 51 | 1018.0 |
| 20260503225538 | 78 | 117 | 3.0 | 9.0 | 0.00 | 0.01 | 0.01 | 49 | 1018.1 |
| 20260503225037 | 78 | 136 | 0.0 | 6.0 | 0.00 | 0.01 | 0.01 | 52 | 1018.1 |
| 20260503224555 | 78 | 0 | 1.0 | 6.0 | 0.00 | 0.01 | 0.01 | 49 | 1018.1 |
| 20260503224038 | 78 | 140 | 2.0 | 5.0 | 0.00 | 0.01 | 0.01 | 48 | 1018.2 |
| 20260503223537 | 78 | 150 | 1.0 | 5.0 | 0.00 | 0.01 | 0.01 | 50 | 1018.3 |
| 20260503223046 | 78 | 166 | 1.0 | 5.0 | 0.00 | 0.01 | 0.01 | 50 | 1018.3 |
| 20260503222538 | 78 | 166 | 1.0 | 5.0 | 0.00 | 0.01 | 0.01 | 48 | 1018.3 |
| 20260503222040 | 78 | 183 | 1.0 | 8.0 | 0.00 | 0.01 | 0.01 | 51 | 1018.3 |
| 20260503221543 | 78 | 239 | 1.0 | 8.0 | 0.00 | 0.01 | 0.01 | 48 | 1018.4 |
| 20260503221036 | 78 | 196 | 2.0 | 4.0 | 0.00 | 0.01 | 0.01 | 49 | 1018.5 |
| 20260503220539 | 78 | 215 | 0.0 | 8.0 | 0.00 | 0.01 | 0.01 | 49 | 1018.5 |
| 20260503220053 | 79 | 215 | 1.0 | 8.0 | 0.00 | 0.01 | 0.01 | 47 | 1018.7 |
| 20260503215539 | 80 | 165 | 2.0 | 8.0 | 0.00 | 0.01 | 0.01 | 46 | 1018.7 |
| 20260503215035 | 80 | 0 | 0.0 | 5.0 | 0.00 | 0.01 | 0.01 | 47 | 1018.6 |
| 20260503214552 | 79 | 222 | 1.0 | 7.0 | 0.00 | 0.01 | 0.01 | 48 | 1018.5 |
| 20260503214039 | 79 | 182 | 2.0 | 8.0 | 0.00 | 0.01 | 0.01 | 49 | 1018.7 |
| 20260503213539 | 79 | 188 | 2.0 | 9.0 | 0.00 | 0.01 | 0.01 | 48 | 1018.7 |
| 20260503213054 | 79 | 204 | 4.0 | 9.0 | 0.00 | 0.01 | 0.01 | 45 | 1018.8 |
| 20260503212535 | 79 | 207 | 3.0 | 8.0 | 0.00 | 0.01 | 0.01 | 49 | 1019.0 |
| 20260503212038 | 79 | 140 | 0.0 | 7.0 | 0.00 | 0.01 | 0.01 | 48 | 1019.2 |
| 20260503211604 | 78 | 0 | 0.0 | 7.0 | 0.00 | 0.01 | 0.01 | 47 | 1019.3 |
| 20260503211038 | 78 | 140 | 3.0 | 7.0 | 0.00 | 0.01 | 0.01 | 46 | 1019.5 |
| 20260503210535 | 78 | 166 | 3.0 | 7.0 | 0.00 | 0.01 | 0.01 | 48 | 1019.5 |
| 20260503210043 | 78 | 146 | 1.0 | 9.0 | 0.00 | 0.01 | 0.01 | 49 | 1019.7 |
| 20260503205538 | 79 | 192 | 3.0 | 9.0 | 0.00 | 0.01 | 0.01 | 45 | 1019.7 |
| 20260503205039 | 79 | 146 | 4.0 | 9.0 | 0.00 | 0.01 | 0.01 | 45 | 1019.8 |
| 20260503204548 | 79 | 257 | 0.0 | 7.0 | 0.00 | 0.01 | 0.01 | 48 | 1019.8 |
| 20260503204039 | 79 | 257 | 1.0 | 7.0 | 0.00 | 0.01 | 0.01 | 49 | 1019.9 |
| 20260503203536 | 79 | 259 | 1.0 | 4.0 | 0.00 | 0.01 | 0.01 | 47 | 1020.0 |
| 20260503203049 | 79 | 0 | 1.0 | 5.0 | 0.00 | 0.01 | 0.01 | 47 | 1020.1 |
| 20260503202539 | 79 | 250 | 2.0 | 6.0 | 0.00 | 0.01 | 0.01 | 46 | 1020.2 |
| 20260503202035 | 79 | 250 | 2.0 | 6.0 | 0.00 | 0.01 | 0.01 | 45 | 1020.3 |
| 20260503201548 | 79 | 0 | 1.0 | 7.0 | 0.00 | 0.01 | 0.01 | 44 | 1020.4 |
| 20260503201039 | 79 | 240 | 2.0 | 7.0 | 0.00 | 0.01 | 0.01 | 45 | 1020.5 |
| 20260503200539 | 78 | 253 | 1.0 | 5.0 | 0.00 | 0.01 | 0.01 | 46 | 1020.6 |
| 20260503200056 | 78 | 229 | 2.0 | 5.0 | 0.00 | 0.01 | 0.01 | 48 | 1020.7 |
| 20260503195538 | 77 | 0 | 1.0 | 5.0 | 0.00 | 0.01 | 0.01 | 48 | 1020.7 |
| 20260503195038 | 77 | 67 | 1.0 | 6.0 | 0.00 | 0.01 | 0.01 | 44 | 1020.8 |
| 20260503194554 | 78 | 140 | 2.0 | 7.0 | 0.00 | 0.01 | 0.01 | 45 | 1021.0 |
| 20260503194037 | 78 | 103 | 3.0 | 7.0 | 0.00 | 0.01 | 0.01 | 45 | 1021.1 |
| 20260503193536 | 78 | 172 | 3.0 | 7.0 | 0.00 | 0.01 | 0.01 | 45 | 1021.3 |
| 20260503193058 | 78 | 216 | 1.0 | 6.0 | 0.00 | 0.01 | 0.01 | 49 | 1021.3 |
| 20260503192536 | 78 | 139 | 2.0 | 6.0 | 0.00 | 0.01 | 0.01 | 46 | 1021.4 |
| 20260503192035 | 78 | 223 | 1.0 | 7.0 | 0.00 | 0.01 | 0.01 | 50 | 1021.4 |
| 20260503191549 | 78 | 180 | 3.0 | 8.0 | 0.00 | 0.01 | 0.01 | 49 | 1021.5 |
| 20260503191039 | 77 | 244 | 2.0 | 8.0 | 0.00 | 0.01 | 0.01 | 52 | 1021.5 |
| 20260503190539 | 77 | 188 | 3.0 | 8.0 | 0.00 | 0.01 | 0.01 | 51 | 1021.6 |
| 20260503190049 | 77 | 199 | 3.0 | 8.0 | 0.00 | 0.01 | 0.01 | 54 | 1021.7 |
| 20260503185536 | 77 | 336 | 2.0 | 8.0 | 0.00 | 0.01 | 0.01 | 53 | 1021.7 |
| 20260503185036 | 77 | 253 | 2.0 | 7.0 | 0.00 | 0.01 | 0.01 | 49 | 1021.8 |
| 20260503184558 | 77 | 244 | 0.0 | 7.0 | 0.00 | 0.01 | 0.01 | 49 | 1021.9 |